Weather History for Alexandria, LA

Change the Weather History Date:

Saturday, August 3, 2013

  Actual Average Record
Temperature  
Mean Temperature 86 °F 83 °F  
Max Temperature 96 °F 93 °F 106 °F (1998)
Min Temperature 75 °F 73 °F 66 °F (1976)
Cooling Degree Days 21 18  
Month to date cooling degree days 64 54  
Year to date cooling degree days 1465 1500  
Since 1 June cooling degree days 1072 1046  
Growing Degree Days 35 (Base 50)    
Moisture  
Dew Point 75 °F    
Average Humidity 72    
Maximum Humidity 94    
Minimum Humidity 49    
Precipitation  
Precipitation 0.00 in 0.12 in 2.95 in (1983)
Month to date precipitation T 0.34  
Year to date precipitation 32.91 33.07  
Sea Level Pressure  
Sea Level Pressure 30.01 in    
Wind  
Wind Speed 3 mph (ESE)    
Max Wind Speed 9 mph    
Max Gust Speed 12 mph    
Visibility 10 miles    
Events      
T = Trace of Precipitation, MM = Missing Value Source: NWS Daily Summary

Daily Weather History Graph

Daily Weather History Graph

Search for Another Location

Airport:

Trip Planner

Search our weather history database for the weather conditions in past years. The results will help you decide how hot, cold, wet, or windy it might be!

Date:

Astronomy

Aug. 03, 2013 Rise Set
Actual Time 6:28 AM CDT 8:04 PM CDT
Civil Twilight 6:02 AM CDT 8:30 PM CDT
Nautical Twilight 5:30 AM CDT 9:01 PM CDT
Astronomical Twilight 4:57 AM CDT 9:34 PM CDT
Moon 3:40 AM CDT (8/3) 5:45 PM CDT (8/3)
Length of Visible Light 14h 28m
Length of Day
13h 35m
Waning Crescent, 9% of the Moon is Illuminated
Aug 3
Waning Crescent
Aug 6
New
Aug 14
First Quarter
Aug 20
Full
Aug 28
Last Quarter

Hourly Weather History & Observations

Time (CDT) Temp. Heat Index Dew Point Humidity Pressure Visibility Wind Dir Wind Speed Gust Speed Precip Events Conditions
12:53 AM 80.1 °F 85.1 °F 75.0 °F 85% 29.98 in 10.0 mi South 4.6 mph - N/A   Clear
1:53 AM 79.0 °F - 75.0 °F 88% 29.97 in 10.0 mi Calm Calm - N/A   Clear
2:53 AM 78.1 °F - 75.0 °F 90% 29.98 in 10.0 mi Calm Calm - N/A   Clear
3:53 AM 78.1 °F - 73.9 °F 87% 29.98 in 10.0 mi Calm Calm - N/A   Clear
4:53 AM 75.9 °F - 73.9 °F 94% 29.98 in 9.0 mi Calm Calm - N/A   Clear
5:53 AM 75.0 °F - 73.0 °F 94% 29.99 in 8.0 mi Calm Calm - N/A   Clear
6:53 AM 75.0 °F - 73.9 °F 96% 30.00 in 6.0 mi Calm Calm - N/A   Clear
7:53 AM 78.1 °F - 75.0 °F 90% 30.01 in 8.0 mi Calm Calm - N/A   Clear
8:53 AM 82.0 °F 89.4 °F 75.9 °F 82% 30.03 in 10.0 mi West 6.9 mph - N/A   Clear
9:53 AM 86.0 °F 96.0 °F 75.9 °F 72% 30.04 in 10.0 mi Variable 6.9 mph - N/A   Partly Cloudy
10:20 AM 86.0 °F 95.1 °F 75.2 °F 70% 30.05 in 10.0 mi Variable 4.6 mph - N/A   Mostly Cloudy
10:43 AM 87.8 °F 97.6 °F 75.2 °F 66% 30.04 in 10.0 mi West 4.6 mph - N/A   Scattered Clouds
10:53 AM 88.0 °F 100.2 °F 77.0 °F 70% 30.05 in 10.0 mi Variable 4.6 mph - N/A   Scattered Clouds
11:16 AM 87.8 °F 97.6 °F 75.2 °F 66% 30.04 in 10.0 mi SW 6.9 mph - N/A   Mostly Cloudy
11:35 AM 87.8 °F 95.6 °F 73.4 °F 62% 30.04 in 10.0 mi Variable 3.5 mph - N/A   Mostly Cloudy
11:53 AM 90.0 °F 100.2 °F 75.0 °F 61% 30.04 in 10.0 mi Variable 4.6 mph - N/A   Scattered Clouds
12:53 PM 93.0 °F 104.6 °F 75.0 °F 56% 30.04 in 10.0 mi WNW 5.8 mph - N/A   Mostly Cloudy
1:53 PM 93.0 °F 101.9 °F 73.0 °F 52% 30.02 in 10.0 mi Calm Calm - N/A   Scattered Clouds
2:53 PM 95.0 °F 105.2 °F 73.9 °F 50% 30.01 in 10.0 mi ENE 5.8 mph - N/A   Clear
3:53 PM 93.9 °F 104.0 °F 73.9 °F 52% 29.99 in 10.0 mi ENE 4.6 mph - N/A   Clear
4:53 PM 93.9 °F 104.0 °F 73.9 °F 52% 29.99 in 10.0 mi ENE 3.5 mph - N/A   Clear
5:53 PM 91.9 °F 103.2 °F 75.0 °F 58% 29.99 in 10.0 mi ENE 4.6 mph - N/A   Clear
6:53 PM 90.0 °F 102.5 °F 77.0 °F 65% 29.99 in 10.0 mi ENE 5.8 mph - N/A   Clear
7:53 PM 88.0 °F 100.2 °F 77.0 °F 70% 30.00 in 10.0 mi ENE 4.6 mph - N/A   Clear
8:53 PM 86.0 °F 96.0 °F 75.9 °F 72% 30.01 in 10.0 mi ESE 4.6 mph - N/A   Clear
9:53 PM 84.0 °F 92.6 °F 75.9 °F 76% 30.02 in 10.0 mi ESE 4.6 mph - N/A   Clear
10:53 PM 82.9 °F 90.8 °F 75.9 °F 79% 30.04 in 10.0 mi SSE 4.6 mph - N/A   Clear
11:53 PM 80.1 °F 85.8 °F 77.0 °F 90% 30.04 in 10.0 mi SSE 4.6 mph - N/A   Clear